KUIPER-00090

Last updated on Sat Aug 16 2025 00:02:06 GMT+0000 (Coordinated Universal Time)

1 64835U 25151V 25227.47296139 .00026335 00000+0 76064-3 0 9993 2 64835 51.8791 142.0630 0005403 268.3086 91.7281 15.35468574 4639
UTC large
Height (km)
Speed (km/s)
/
Latitude / Longitude
Inclination (degrees)
Orbital Period (minutes)
Azimuth
Elevation
Range (km)
Doppler Factor

Next 0 passes for location: London (51.5072 / 0.1276)

Sorry there are no passes over London.